RH
64 69 72 70 65 54 38 29 18 12 9 7 6 6 6 5 4 4 2 2 4 8 12 18 13 6 12 23 21 13 13 13 15 14 14 18 17 13 15 13 10 10 9 7 7 9 10
61 65 70 67 65 54 46 33 22 12 8 7 6 6 5 5 4 2 2 2 9 12 17 20 10 3 14 43 13 12 13 14 16 16 14 14 16 12 12 10 11 9 9 8 7 8 10
61 62 67 67 66 58 51 36 23 11 8 6 6 5 5 4 3 2 2 5 14 18 18 21 21 12 19 30 15 13 14 16 17 15 15 14 13 13 11 14 10 10 12 10 8 8 13
63 63 69 72 65 59 47 33 20 10 7 6 6 5 4 3 2 2 3 12 18 17 16 20 21 20 28 16 13 13 16 17 15 14 14 14 13 11 12 11 11 14 13 15 12 12 12
63 66 70 69 64 58 48 34 18 8 7 6 5 4 3 2 2 3 8 16 15 18 22 18 19 18 34 14 13 14 16 17 16 14 14 12 13 12 13 20 24 19 21 16 15 12 11
69 68 66 69 64 56 44 32 15 8 7 6 5 4 2 2 2 4 14 13 14 14 17 19 18 30 24 15 12 14 16 18 17 14 14 14 13 20 23 26 30 24 22 19 15 14 15
72 69 63 65 63 54 46 26 11 8 7 6 4 3 2 2 3 6 17 15 18 23 25 17 15 16 16 13 13 14 17 17 17 15 21 16 27 29 20 18 17 19 21 20 16 14 21
79 69 68 67 65 58 44 19 10 8 6 5 3 2 2 4 4 10 19 29 36 37 24 14 15 14 13 13 13 12 16 19 16 25 20 27 29 19 15 15 18 20 18 26 21 15 36
82 66 69 68 67 63 47 15 10 7 5 3 2 2 4 5 4 12 18 36 35 29 37 15 13 13 13 13 10 13 16 18 19 20 24 28 20 13 13 20 20 20 24 26 26 22 36
87 67 68 70 67 65 43 14 10 6 4 3 3 7 9 6 7 15 19 32 26 18 55 21 15 14 12 16 12 13 15 17 19 25 23 29 17 18 22 21 20 23 25 26 26 31 28
86 68 68 70 66 64 33 12 9 5 3 3 8 23 10 10 38 39 42 36 16 17 79 19 13 12 11 13 10 12 13 12 16 15 17 22 26 26 27 23 21 25 22 28 30 37 33
87 71 71 71 66 64 31 12 8 4 3 4 26 30 12 36 45 48 38 27 15 69 63 21 13 14 13 12 12 14 17 13 16 15 18 19 19 23 24 24 24 28 35 37 42 41 80
98 75 75 74 68 64 36 11 6 4 4 17 37 32 20 37 68 37 35 14 76 79 21 17 16 15 15 16 14 20 26 31 38 39 25 22 20 22 22 32 29 37 52 85 81 91 99
84 79 80 81 70 66 41 11 6 4 5 36 45 37 21 43 58 36 30 62 68 35 20 13 13 15 18 18 22 27 27 34 33 42 41 43 37 26 25 30 40 42 55 85 85 94 99
85 85 86 86 70 66 34 10 4 4 21 44 44 40 24 15 32 29 62 88 52 32 17 14 14 20 19 19 20 26 35 39 36 40 57 72 36 22 24 25 39 47 68 53 69 76 89
100 93 96 92 72 66 26 9 4 5 41 44 61 65 54 32 32 55 66 70 34 23 19 18 21 20 24 20 22 24 36 34 38 32 34 34 58 26 29 34 43 56 54 82 89 92 99
100 99 98 93 74 64 19 7 4 9 40 47 56 65 32 34 32 67 71 42 23 19 20 29 20 19 22 20 20 23 39 38 37 38 34 32 62 39 39 61 73 76 86 86 84 95 94
100 99 98 96 76 62 15 6 4 16 40 43 55 76 26 29 66 56 49 26 18 17 18 22 26 32 28 21 28 40 43 42 35 38 43 36 58 60 57 56 58 66 72 97 94 89 99
96 94 86 98 77 56 12 5 4 23 36 36 60 27 25 34 85 54 25 26 22 19 20 21 24 26 26 28 32 40 45 34 30 42 59 61 61 74 71 62 65 81 79 82 94 94 95
93 94 96 100 75 46 9 5 4 22 33 43 55 60 24 30 36 40 36 30 27 20 22 21 22 23 25 26 29 40 45 33 30 36 39 58 69 81 93 94 77 91 74 71 80 89 83
99 100 95 98 76 36 8 5 4 14 31 36 48 54 27 46 44 38 36 29 29 24 19 19 22 26 26 31 34 46 40 37 32 31 44 60 81 74 74 76 79 87 76 69 74 61 70
100 99 99 96 70 23 6 4 5 8 28 34 54 34 29 34 29 37 36 31 30 24 24 24 40 43 45 58 58 60 46 52 49 37 39 50 77 70 81 67 72 94 82 71 66 65 50
100 98 100 90 70 17 7 5 5 10 24 32 43 30 28 29 35 42 34 29 33 29 29 39 44 53 54 48 38 35 31 30 33 43 53 60 74 76 94 67 64 84 98 85 74 74 71
98 98 100 78 58 11 6 5 6 17 24 46 36 32 28 48 38 32 32 31 42 47 55 44 40 48 41 37 37 33 28 24 23 27 28 64 83 88 98 95 96 96 80 83 80 75 75
96 100 94 70 34 8 6 6 19 22 28 37 40 36 28 44 32 34 36 46 46 46 52 53 46 38 41 40 54 55 67 51 31 28 46 62 87 98 98 98 99 83 76 85 84 87 68
100 100 77 58 14 7 5 6 30 25 40 41 36 36 23 31 60 30 44 40 55 57 54 53 53 49 52 59 45 52 64 38 40 38 42 74 80 99 100 96 97 97 76 83 78 94 69
100 93 70 27 9 7 5 8 36 36 40 46 42 33 28 57 58 48 47 46 35 41 58 40 42 46 43 54 54 63 73 46 71 67 77 97 100 99 98 98 98 77 80 80 90 86 66
99 81 50 13 8 6 5 15 35 30 45 48 43 31 24 61 57 46 44 43 37 35 68 35 53 46 53 59 63 58 71 63 81 74 78 89 99 98 99 97 99 80 68 85 74 67 66
87 71 24 9 7 5 6 19 37 32 55 45 43 37 30 46 59 47 43 42 37 36 38 45 47 38 37 63 62 75 80 81 77 99 79 96 100 100 100 99 85 76 68 69 73 72 67
Wind_Speed
16 16 16 18 20 21 19 17 16 13 12 12 13 13 12 14 15 14 14 13 11 9 6 6 5 5 4 2 7 6 8 11 13 9 6 7 16 16 7 8 15 4 6 11 6 14 13
17 17 17 18 19 19 20 19 16 13 12 11 11 12 12 13 14 13 13 11 8 5 4 4 3 3 6 3 2 8 8 10 12 13 10 13 12 15 19 11 7 14 11 11 13 5 13
18 19 18 18 19 19 20 21 15 11 11 11 11 11 12 12 13 11 11 7 5 4 3 1 1 2 6 12 8 7 10 10 10 9 9 13 16 20 11 8 13 15 7 9 12 5 8
18 20 20 18 19 18 20 20 15 11 11 11 11 11 11 12 12 9 7 3 3 2 2 1 2 2 6 4 8 10 9 8 1 6 6 10 4 5 14 14 15 8 4 5 6 11 7
19 20 20 19 19 18 20 21 14 10 10 10 11 10 11 11 10 7 2 6 5 4 3 3 2 3 6 6 10 9 7 8 2 3 5 7 3 8 10 5 5 5 3 5 1 7 3
20 20 20 19 18 19 21 21 14 11 9 11 10 11 11 10 8 6 7 9 2 3 3 2 5 6 6 5 9 10 6 6 8 4 8 6 6 1 5 6 3 8 8 9 1 2 10
21 20 19 18 17 19 21 18 12 12 10 11 10 11 10 9 6 5 9 6 4 2 6 3 3 7 6 7 5 8 7 4 8 9 5 18 7 5 7 5 3 4 7 8 6 6 11
22 20 18 16 16 18 21 16 11 13 10 10 11 11 9 8 6 8 10 3 2 3 2 1 3 3 7 9 5 11 7 5 4 6 8 7 7 6 6 8 9 9 8 6 1 11 19
23 20 18 16 16 18 20 13 12 12 10 9 10 8 7 7 7 9 13 1 7 6 3 5 4 1 8 4 4 10 12 12 3 4 10 8 5 10 7 11 11 8 6 7 8 9 16
24 20 18 16 16 18 17 14 13 10 9 8 8 7 6 3 4 5 10 8 9 2 4 4 3 1 5 3 3 8 9 3 2 6 6 7 11 10 11 13 8 4 6 7 9 7 3
25 21 19 17 17 18 14 13 12 9 8 8 6 6 4 8 8 8 6 9 3 2 3 3 3 2 3 2 3 13 12 10 9 8 3 2 8 8 7 8 11 5 3 9 11 7 3
26 22 20 19 17 17 14 13 12 8 8 6 5 5 7 10 7 7 9 3 3 5 4 3 5 5 5 9 11 9 9 8 8 5 9 7 11 9 4 9 5 7 7 7 5 1 4
25 24 22 20 18 18 15 13 11 8 7 5 5 6 11 12 6 9 6 5 4 4 2 5 4 5 9 5 4 6 11 10 5 4 3 6 8 5 10 6 8 7 6 4 6 5 4
28 25 23 21 20 19 15 12 10 6 5 4 5 5 13 13 9 7 12 4 4 6 3 6 5 8 4 2 6 10 6 5 8 6 3 3 3 4 6 4 4 5 6 4 3 2 1
26 23 23 21 21 19 15 12 9 6 6 4 3 3 6 7 8 15 5 4 6 4 5 5 7 5 3 3 3 5 5 4 4 8 5 4 2 3 2 2 7 5 4 4 5 4 5
26 24 23 22 21 18 15 13 10 7 7 8 6 3 2 6 15 9 4 3 3 4 6 3 4 1 4 6 3 4 4 4 4 5 6 1 2 3 6 11 12 6 3 5 4 3 3
26 25 24 23 21 17 15 13 11 9 10 9 5 2 4 11 12 3 3 1 4 8 8 6 4 3 5 4 3 4 4 5 7 6 10 3 4 2 7 5 5 5 4 5 5 3 4
19 27 25 23 21 17 16 16 13 13 14 10 2 1 12 11 3 3 2 5 8 2 2 4 6 8 5 3 5 5 5 4 7 9 4 2 1 4 10 15 15 11 7 3 3 2 3
26 34 28 25 22 17 18 17 15 16 17 10 3 4 11 8 2 2 3 4 8 2 4 2 3 6 4 4 4 7 5 3 7 3 2 4 1 4 6 3 6 6 4 6 5 2 3
32 34 29 27 22 18 20 19 17 19 19 11 3 3 4 7 8 8 6 4 2 9 9 8 3 5 5 5 6 5 4 1 2 3 1 2 5 6 3 6 2 3 2 4 3 4 1
33 30 28 27 23 21 22 20 18 21 20 12 5 3 9 3 1 7 8 6 7 3 2 2 2 5 2 4 5 6 5 4 5 2 2 3 5 15 11 12 12 12 12 5 4 5 6
34 32 31 29 23 25 26 25 22 22 20 14 4 3 4 7 18 9 6 5 8 4 3 4 11 14 15 7 6 6 4 6 5 6 5 5 5 15 9 11 14 13 16 15 9 14 9
36 38 34 29 24 27 26 24 22 23 22 10 4 2 6 10 4 5 1 5 6 3 15 17 20 11 12 9 17 17 20 16 9 4 6 4 7 6 4 7 6 8 7 10 4 11 7
42 38 34 28 26 29 27 25 24 25 26 8 3 1 7 1 4 4 13 16 10 14 8 15 18 7 6 11 12 15 16 14 11 9 8 3 3 3 6 5 4 2 4 3 3 9 11
42 37 33 29 29 30 28 26 25 28 26 12 3 2 3 4 16 16 19 16 26 25 19 19 16 14 11 6 1 4 3 2 5 7 8 10 3 2 3 4 5 1 1 2 4 6 14
42 38 32 30 32 31 29 26 27 30 20 11 8 4 21 16 7 22 20 21 6 4 5 6 7 9 2 2 3 3 1 3 4 5 13 12 7 2 1 4 3 1 4 3 3 3 11
42 37 32 33 34 32 29 27 29 29 18 12 7 18 19 19 13 6 5 6 8 6 4 4 2 0 2 3 4 3 2 4 3 4 4 4 3 5 5 4 4 5 3 2 2 3 12
40 34 34 35 34 31 29 29 31 28 20 14 16 20 24 13 20 15 18 16 12 10 5 7 3 4 4 4 4 2 3 1 4 6 3 4 3 4 3 3 4 9 4 1 2 8 12
37 33 35 35 34 31 29 31 34 28 23 24 21 13 21 32 28 25 19 14 14 16 21 5 7 6 2 3 2 4 4 3 3 2 7 5 4 1 4 3 1 4 5 1 7 14 14
Wind_Direction
306 309 311 318 322 321 319 321 312 302 281 277 283 289 294 298 299 301 302 305 306 306 306 318 321 270 200 276 273 336 360 341 318 308 279 287 285 279 253 267 287 253 288 353 306 96 101
299 304 306 312 317 317 316 317 312 291 277 276 284 291 297 298 298 301 303 304 301 293 298 320 337 224 190 270 346 353 332 318 312 293 282 257 262 261 272 282 297 300 317 334 316 141 132
292 299 303 308 314 312 314 316 308 293 276 279 286 290 297 298 296 305 304 301 287 275 266 281 201 215 245 246 330 317 328 309 274 306 269 249 260 261 305 309 281 309 323 311 280 238 133
284 293 298 304 308 309 314 315 300 281 272 277 283 291 296 297 295 306 298 282 277 249 186 148 169 264 270 288 339 318 339 327 307 323 275 299 310 274 271 271 291 295 303 283 304 130 162
282 289 294 303 305 312 316 313 291 266 270 280 288 293 293 291 298 291 234 142 95 102 145 161 222 265 274 305 334 345 327 320 265 287 284 265 228 249 277 248 354 28 266 4 71 75 122
275 283 292 297 302 312 314 309 285 268 279 281 292 289 286 289 292 276 179 162 188 165 155 242 257 298 275 330 328 354 302 308 312 240 262 253 235 39 12 48 358 341 345 339 28 347 62
271 278 287 289 301 314 313 303 273 269 263 276 284 283 287 292 276 235 181 197 293 269 210 332 11 290 355 333 273 348 319 283 254 271 243 240 64 50 7 351 343 327 356 330 354 32 86
262 273 276 280 296 312 315 295 267 269 271 277 281 282 286 283 257 202 184 130 50 294 262 4 61 29 349 336 347 351 345 349 204 230 250 38 47 345 342 1 20 25 2 346 1 37 93
259 267 271 276 294 309 312 280 267 267 270 284 284 287 286 273 238 201 188 325 306 242 240 212 194 273 350 37 46 355 356 338 294 96 72 90 20 360 1 50 27 3 5 354 330 335 111
253 259 264 270 290 303 306 276 269 268 272 276 279 287 280 231 159 171 215 261 295 309 38 159 212 9 326 270 72 25 12 325 336 50 73 74 35 22 33 17 8 339 352 349 322 333 287
246 250 255 264 283 300 296 272 270 267 269 276 287 280 228 168 135 152 196 235 229 336 51 271 76 88 34 153 299 13 8 34 47 41 46 56 65 37 36 345 319 335 357 270 272 268 281
239 243 247 256 275 290 288 271 268 263 264 279 273 263 182 165 162 190 205 210 149 47 259 143 156 159 80 46 80 52 44 57 28 91 73 99 110 59 1 322 4 318 323 308 309 151 66
239 237 242 252 268 281 278 266 258 253 262 265 259 223 173 182 174 196 191 142 49 123 272 147 177 163 82 48 34 84 77 52 43 38 170 94 44 109 20 352 347 15 13 3 28 26 58
217 232 238 248 262 276 271 257 249 243 252 240 246 204 191 195 199 199 172 62 98 220 108 95 150 143 128 89 30 25 65 44 12 5 40 41 343 33 358 354 318 40 51 118 87 96 78
218 225 234 243 258 275 261 247 230 224 218 201 163 127 195 209 199 158 156 72 202 318 108 156 148 167 145 147 189 111 79 38 42 3 85 51 80 32 359 320 36 335 21 276 109 100 85
218 233 233 241 254 272 251 234 214 201 194 160 135 109 302 172 160 159 82 210 134 359 347 354 219 90 146 139 187 105 89 32 9 37 354 190 99 119 48 34 35 71 341 35 16 88 94
203 222 233 239 252 267 241 221 203 187 177 172 167 150 159 164 161 202 137 164 88 18 22 16 9 55 96 65 31 86 59 49 8 332 314 10 117 300 50 55 21 9 15 23 105 61 140
222 214 223 237 247 259 231 213 193 185 185 181 206 151 164 172 166 178 123 124 111 149 26 12 36 48 51 60 46 73 91 53 343 311 349 62 144 81 95 107 91 65 51 102 108 72 49
244 213 213 228 242 247 223 206 188 185 184 176 204 116 164 182 159 80 113 64 48 91 12 92 55 29 18 76 103 104 92 28 355 58 24 345 311 107 119 113 36 48 324 86 106 58 20
233 211 213 225 237 236 217 201 189 188 191 199 264 87 139 228 271 136 121 124 104 30 41 59 107 134 103 73 72 125 112 95 87 83 56 56 39 76 111 84 89 19 324 101 77 72 142
222 211 212 225 236 224 211 199 189 194 196 202 239 172 167 210 153 125 153 136 148 128 53 139 357 37 76 125 133 113 122 199 160 60 282 131 94 99 100 96 78 48 35 66 102 131 104
205 202 214 221 228 219 203 191 188 194 197 201 291 130 173 134 155 119 112 152 98 76 146 76 83 62 57 75 63 45 99 36 50 352 351 99 120 106 91 106 88 64 31 31 25 19 83
204 200 209 219 227 215 204 192 188 192 187 206 232 303 118 118 105 89 108 133 110 56 36 41 102 81 64 79 88 84 81 76 67 40 358 23 153 132 121 123 69 38 0 28 20 20 359
202 196 208 217 220 209 199 192 188 187 184 194 182 24 121 211 95 104 96 100 84 70 98 40 99 94 134 128 124 107 104 97 76 42 24 73 19 72 147 160 65 249 263 263 1 28 11
198 197 204 215 211 204 195 190 185 183 179 188 164 100 96 85 94 84 98 92 85 84 77 68 73 113 139 172 109 96 30 341 34 49 40 103 126 167 129 68 113 143 41 349 24 27 357
195 199 204 208 202 198 190 186 181 177 179 180 174 153 125 107 9 126 117 121 126 97 61 95 103 138 116 248 67 69 90 305 54 17 19 49 39 47 128 98 102 94 125 161 329 60 359
193 197 204 198 196 192 186 181 176 170 173 161 151 147 127 97 32 98 105 139 141 93 101 118 151 193 72 62 79 95 50 43 30 37 336 24 9 42 57 90 68 9 123 195 8 271 325
191 198 198 192 191 186 182 175 172 171 162 147 130 154 146 92 57 86 95 90 102 124 126 160 79 21 41 63 96 102 84 141 83 46 55 52 0 29 19 84 97 352 87 4 245 283 306
192 196 191 188 185 181 176 171 168 169 159 149 138 148 138 96 87 75 80 83 95 106 120 114 103 88 79 92 82 70 56 41 61 47 4 49 42 50 21 79 114 51 92 5 316 306 305